weather.gov     
National Weather Service

Terminal Aerodrome Forecast
NWS Homepage
This page is being discontinued on March 12, 2014.
The same data is available at this site. Please update your bookmarks.
Thank you, and we apologize for the inconvenience.
Please send an email to SR-SRH.Webmaster@noaa.gov with any concerns.


Current Version
Previous Version:    01  02  03  04  05  06  07  08  09  10  11  12  13  14  15  16  17  18  19  20  21  22  23  24  25  
[Printable]
069
FTUS46 KMTR 280500
TAFSJC
TAF
KSJC 280539Z 2806/2906 VRB03KT 6SM BR FEW010
      TEMPO 2813/2816 4SM BR FEW009 SCT200
     FM282100 28005KT P6SM FEW010 SCT050 BKN200
     FM290300 17007G13KT P6SM SCT050 BKN100 PROB30 2903/2906 -RA
      OVC050=


U.S. Dept. of Commerce
NOAA National Weather Service
1325 East West Highway
Silver Spring, MD 20910
E-mail: w-nws.webmaster@noaa.gov
Page last modified: May 16, 2007
NATIONAL WEATHER SERVICE: for Safety, for Work, for Fun - FOR LIFE